Regional Weather Roundup
Issued by NWS

Home | Current Version | Previous Version | Text Only | Print | Product List | Glossary Off
Versions: 1 2 3 4 5 6 7 8 9 10 11 12 13 14 15 16 17 18 19 20 21 22 23 24 25 26 27 28 29 30 31 32 33 34 35 36 37 38 39 40 41 42 43 44 45 46 47 48 49 50

000
ASUS45 KABQ 271101
RWRNM
NEW MEXICO REGIONAL WEATHER ROUNDUP
NATIONAL WEATHER SERVICE ALBUQUERQUE NM
500 AM MDT SAT AUG 27 2016

NOTE: "FAIR" MEANS FEW OR NO CLOUDS BELOW 12,000 FEET AGL WITH NO
       SIGNIFICANT WEATHER OR OBSTRUCTIONS TO VISION.

      THIS PRODUCT IS RELEASED AS TWO VERSIONS.  ONE VERSION NEAR
      THE TOP OF THE HOUR CONTAINING PRELIMINARY DATA FROM ALBUQUERQUE
      AND OTHER STATIONS.  A FINAL VERSION WITH ADDITIONAL DATA IS
      ISSUED ABOUT 10 MINUTES AFTER THE HOUR.

NMZ501-503-504-510>518-271200-
NORTHWEST PLATEAU/NORTHCENTRAL MOUNTAINS

CITY           SKY/WX    TMP DP  RH WIND       PRES   REMARKS
FARMINGTON     FAIR      58  45  62 E9        30.15F
LOS ALAMOS     FAIR      57  46  65 CALM      30.27S
SANTA FE       FAIR      54  50  86 CALM      30.22S
TAOS           FAIR      43  36  75 N3        30.28F
ANGEL FIRE     FAIR      37  36  96 CALM      30.36R

$$
NMZ402-403-502-505>509-271200-
WESTCENTRAL MOUNTAINS/SOUTHWEST MOUNTAINS

CITY           SKY/WX    TMP DP  RH WIND       PRES   REMARKS
GALLUP         CLOUDY    55  45  68 E5        30.23R
GRANTS         CLOUDY    51  47  84 CALM      30.25F
SILVER CITY    FAIR      57  54  88 N7        30.18S

$$
NMZ407-409-411-412-271200-
SOUTHERN DESERTS

CITY           SKY/WX    TMP DP  RH WIND       PRES   REMARKS
DEMING         FAIR      64  56  75 NE6       30.11R
LAS CRUCES     FAIR      67  57  68 CALM      30.12S
ALAMOGORDO     FAIR      64  59  82 N7        30.13R
T OR C         FAIR      63  53  70 W6        30.13S

$$
NMZ519>523-271200-
CENTRAL VALLEYS/CENTRAL HIGHLANDS

CITY           SKY/WX    TMP DP  RH WIND       PRES   REMARKS
ALBUQUERQUE    FAIR      62  48  60 SE6       30.18R
DOUBLE EAGLE   FAIR      52  45  77 CALM      30.20S
MORIARTY ARPT  CLOUDY    52  49  89 CALM      30.23S
CLINES CORNERS CLOUDY    58  47  66 SW13      30.26S
BELEN          FAIR      60  47  62 CALM      30.16S
SOCORRO        FAIR      65  52  62 S6        30.15R

$$
NMZ524>526-539-540-271200-
SOUTHCENTRAL MOUNTAINS

CITY           SKY/WX    TMP DP  RH WIND       PRES   REMARKS
RUIDOSO        NOT AVBL

$$
NMZ527>531-271200-
NORTHEAST HIGHLANDS/NORTHEAST PLAINS

CITY           SKY/WX    TMP DP  RH WIND       PRES   REMARKS
LAS VEGAS      MOCLDY    52  50  93 SW6       30.24S
RATON          FAIR      48  44  86 N5        30.21R
CLAYTON        FAIR      58  57  97 SW9       30.13R

$$
NMZ532>537-271200-
EASTCENTRAL PLAINS

CITY           SKY/WX    TMP DP  RH WIND       PRES   REMARKS
TUCUMCARI      FAIR      66  62  87 CALM      30.11R
CANNON AFB     FAIR      61  61 100 S7        30.14S
CLOVIS AIRPORT FAIR      61  54  77 S10       30.13S

$$
NMZ028-029-538-271200-
SOUTHEAST PLAINS

CITY           SKY/WX    TMP DP  RH WIND       PRES   REMARKS
ROSWELL        FAIR      65  61  87 CALM      30.08S
ARTESIA        FAIR      66  66 100 CALM      30.08F
CARLSBAD       FAIR      64  63  96 S5        30.06R
HOBBS          FAIR      64  64 100 E6        30.11S


$$




USA.gov is the U.S. government's official web portal to all federal, state and local government web resources and services.